AirNav   Air Wisconsin Up To $57,000 Bonus
 
 1047 users online  

58IS VA Medical Center Heliport
Marion, Illinois, USA

GOING TO MARION?


FAA INFORMATION EFFECTIVE 25 FEBRUARY 2021

Location

FAA Identifier: 58IS
Lat/Long: 37-43-23.1800N 088-57-17.6300W
37-43.386333N 088-57.293833W
37.7231056,-88.9548972
(estimated)
Elevation: 464 ft. / 141 m (estimated)
Variation: 01E (1985)
From city: 1 mile NE of MARION, IL
Time zone: UTC -6 (UTC -5 during Daylight Saving Time)
Zip code: 62959

Heliport Operations

Heliport use: Private use, MEDICAL USE.
Activation date: 01/1988
Control tower: no
ARTCC: KANSAS CITY CENTER
FSS: COLUMBIA FLIGHT SERVICE STATION
Attendance: ON CALL
FOR SERVICE CALL ARP MAGR 618-997-5311 EXT. 54293.
Wind indicator: lighted
Segmented circle: no
Lights: FOR PERIMETER LGTS PHONE 618-997-5311.
Beacon: white-green-yellow (heliport)

Heliport Communications

WX AWOS-3 at MWA (3 nm NW): 119.675 (618-942-8877)
WX ASOS at MDH (14 nm W): PHONE 618-529-1821
WX AWOS-3 at HSB (20 nm E): 135.925 (618-253-3010)

Nearby radio navigation aids

VOR radial/distance  VOR name  Freq  Var
MWAr121/3.3MARION VOR/DME110.4004E

 
NDB name  Hdg/Dist  Freq  Var  ID
JONNY173/7.038201EMW -- .--

Heliport Services

Runway Information

Helipad H1

Dimensions: 50 x 50 ft. / 15 x 15 m
Surface: concrete, in good condition
Runway edge lights: PERI
PERIMETER LGTS.
Operational restrictions: APPROACH AND DEPARTURE IS FROM SOUTHWEST ONLY.
Latitude: 37-43.386333N
Longitude: 088-57.293833W
Elevation: 464.0 ft.
Traffic pattern: leftleft

Heliport Ownership and Management from official FAA records

Ownership: Publicly-owned
Owner: VETERANS ADMIN MEDICAL CENTER
2401 WEST MAIN STREET
MARION, IL 62959
Phone 618-997-5311
Manager: JASON ANDERSON
VETERANS ADMIN MEDICAL CENTER, 2401 WEST MAIN ST
MARION, IL 62959
Phone (618) 997-5311
EXT 54505

Additional Remarks

FOR CD CTC KANSAS CITY ARTCC AT 913-254-8508.

Instrument Procedures

There are no published instrument procedures at 58IS.

Some nearby airports with instrument procedures:

KMWA - Veterans Airport of Southern Illinois (3 nm NW)
KMDH - Southern Illinois Airport (14 nm W)
H96 - Benton Municipal Airport (17 nm N)
KHSB - Harrisburg-Raleigh Airport (20 nm E)
KPJY - Pinckneyville-Du Quoin Airport (25 nm NW)
 
Loc | Ops | Rwys | IFR | FBO | Links
Com | Nav | Svcs | Stats | Notes
Area around 58IS (VA Medical Center Heliport)
 
Road maps at: MapQuest Bing Google
 
Aerial photo
No photo
 
Sectional chart

 
Airport distance calculator
Flying to VA Medical Center Heliport? Find the distance to fly.

From to 58IS

Sunrise and sunset
Times for 07-Mar-2021
 Local
(UTC-6)
 Zulu
(UTC)
Morning civil twilight05:5411:54
Sunrise06:2012:20
Sunset17:5423:54
Evening civil twilight18:2000:20

Current date and time
Zulu (UTC)  07-Mar-2021 21:46:15
Local (UTC-6)  07-Mar-2021 15:46:15
 
METAR
KMWA 
3nm NW 
072048Z 35005KT 10SM CLR 17/M03 A3039
KMDH 
14nm W 
072052Z 00000KT 10SM CLR 18/M03 A3038 RMK AO2 SLP287 T01781033 55017 $
TAF
KMVN 
36nm N 
071120Z 0712/0812 VRB03KT P6SM SKC FM071500 19006KT P6SM FEW250
KPAH 
40nm S 
071120Z 0712/0812 VRB03KT P6SM SKC FM071500 21005KT P6SM FEW250
KCGI 
42nm SW 
071720Z 0718/0818 20006KT P6SM SKC TEMPO 0718/0722 FEW045
NOTAMs
Click for the latest NOTAMs
NOTAMs are issued by the DoD/FAA and will open in a separate window not controlled by AirNav.

 

 
 

Would you like to see your business listed on this page?

 If your business provides an interesting product or service to pilots, flight crews, aircraft, or users of the VA Medical Center Heliport, you should consider listing it here.  To start the listing process, click on the button below
 
Add a business
 

Other Pages about VA Medical Center Heliport

Update a link
 
Copyright © AirNav, LLC. All rights reserved. Privacy Policy  Contact